Location: Kergrach
(48.3833°N, 4.5167°W)
Time: 08:25:55
(UTC+00:00)

CZ-2C R/B - Pass Details

Date: 18 February 2020
Orbit: 667 x 785 km, 98.1° (Epoch: 09 April)

Event Time Altitude Azimuth Distance (km) Brightness Sun altitude
Rises 05:29:38 0° 8° (N) 3,290 5.9 -19.1°
Reaches altitude 10° 05:32:06 10° 1° (N) 2,355 5.1 -18.7°
Maximum altitude 05:36:54 39° 294° (WNW) 1,161 3.0 -17.9°
Enters shadow 05:38:38 30° 253° (WSW) 1,372 3.3 -17.6°
